Home > Time Zones > World Clock > Weather > India > Tonk > Past weeks

Flag for India Weather past 2 weeks in Tonk, Rajasthan, India

Now
59 °F

Fog.


Feels Like: 59 °F
Forecast: 52 / 68 °F
Wind: 5 mph from Southeast

Location: Jaipur / Sanganer

Current Time: Jan 26, 2015 at 12:54:09 PM

Latest Report: Jan 26, 2015 at 12:00 PM


Visibility: 1 mi

Pressure: 30.18 "Hg

Humidity: 88%

Dew point: 55 °F

Location of TonkLocation

Historic Weather in Tonk — Graph

°F

Tonk temperature yesterday

Maximum temperature yesterday: 64 °F (at 4:00 PM)
Minimum temperature yesterday: 52 °F (at 6:00 AM)
Average temperature yesterday: 57 °F

Past Weeks' High & Low Weather Summary

 TemperatureHumidityPressure
High77 °F (Jan 11, 3:00 PM)100% (Jan 12, 8:00 AM)30.21 "Hg (Jan 12, 8:00 AM)
Low45 °F (Jan 12, 8:00 AM)18% (Jan 11, 4:00 PM)29.92 "Hg (Jan 14, 5:00 AM)
Average58 °F77%30.10 "Hg
* Reported Jan 11 11:00 AM — Jan 26 11:00 AM, Tonk, Weather by CustomWeather, © 2014

Note: Actual official high and low records may vary slightly from our data, if they occured in-between our weather recording intervals... More about our weather records

Advertising

Tonk weather history for previous 24 hours

 ConditionsComfort  
Time TempWeatherWind HumidityBarometerVisibility
11:00 AM
Jan 26
55 °FFog.5 mph100%30.18 "Hg1 mi
10:30 AM55 °FFog.5 mph100%30.18 "Hg1 mi
10:00 AM55 °FFog.5 mph100%30.18 "Hg1 mi
8:00 AM54 °FFog.6 mph100%30.12 "Hg1 mi
6:30 AM54 °FFog.No wind100%30.09 "Hg1 mi
6:00 AM54 °FFog.3 mph100%30.09 "Hg1 mi
5:00 AM52 °FFog.1 mph100%30.09 "Hg1 mi
4:00 AM54 °FFog.2 mph100%30.09 "Hg1 mi
3:00 AM54 °FFog.2 mph100%30.09 "Hg1 mi
2:00 AM54 °FFog.6 mph100%30.12 "Hg1 mi
1:00 AM54 °FFog.6 mph100%30.12 "Hg1 mi
12:00 AM54 °FFog.5 mph100%30.12 "Hg1 mi
11:00 PM
Jan 25
55 °FFog.7 mph100%30.12 "Hg1 mi
8:00 PM59 °FFog.6 mph88%30.12 "Hg2 mi
7:00 PM61 °FFog.5 mph83%30.09 "Hg2 mi
6:30 PM61 °FBroken clouds.5 mph83%30.09 "Hg2 mi
6:00 PM61 °FBroken clouds.6 mph83%30.09 "Hg2 mi
5:30 PM63 °FBroken clouds.5 mph77%30.09 "Hg2 mi
4:30 PM63 °FBroken clouds.5 mph73%30.07 "Hg2 mi
4:00 PM64 °FScattered clouds.6 mph64%30.09 "Hg2 mi
3:30 PM63 °FScattered clouds.6 mph73%30.09 "Hg2 mi
2:30 PM63 °FFog.7 mph73%30.09 "Hg1 mi
2:00 PM63 °FFog.7 mph73%30.12 "Hg1 mi
1:30 PM63 °FFog.6 mph77%30.12 "Hg1 mi
1:00 PM61 °FFog.5 mph83%30.15 "Hg1 mi
12:00 PM55 °FFog.6 mph100%30.18 "Hg1 mi
Weather by CustomWeather, © 2014

See weather overviewHow to use our weather pages